This is the latest recevied weather packets stored in our database for station/object N4OOJ-13. If no packets are shown the sender has not sent any weather packets the latest 10 day(s).
| Time | Temp. | Humidity | Pressure | Rain* | Wind** | Luminosity | Snow |
|---|---|---|---|---|---|---|---|
| 1777477832 | 24.44° C | 80% | 1016.4 hPa | 0 mm | - | - | - |
| 1777477227 | 24.44° C | 81% | 1016.6 hPa | 0 mm | - | - | - |
| 1777476622 | 23.33° C | 87% | 1016.6 hPa | 0 mm | - | - | - |
| 1777476022 | 23.33° C | 86% | 1016.4 hPa | 0 mm | - | - | - |
| 1777475421 | 23.33° C | 86% | 1016.6 hPa | 0 mm | - | - | - |
| 1777474827 | 22.78° C | 88% | 1016.6 hPa | 0 mm | - | - | - |
| 1777474227 | 22.22° C | 93% | 1016.5 hPa | 0 mm | - | - | - |
| 1777473616 | 21.67° C | 93% | 1016 hPa | 0 mm | - | - | - |
| 1777473017 | 21.11° C | 95% | 1016.6 hPa | 0 mm | - | - | - |
| 1777472428 | 20.56° C | 96% | 1016.9 hPa | 0 mm | - | - | - |
| 1777471828 | 20.56° C | 99% | 1017 hPa | 0 mm | - | - | - |
| 1777471228 | 20° C | 99% | 1017.2 hPa | 0.25 mm | - | - | - |
| 1777470622 | 20° C | 98% | 1017.4 hPa | 0.25 mm | - | - | - |
| 1777470017 | 20° C | 97% | 1017.8 hPa | 0.51 mm | - | - | - |
| 1777469418 | 19.44° C | 99% | 1018.1 hPa | 0.76 mm | - | - | - |
| 1777468817 | 18.33° C | 99% | 1018.3 hPa | 1.02 mm | - | - | - |
| 1777468222 | 17.78° C | 99% | 1018.5 hPa | 1.02 mm | - | - | - |
| 1777467616 | 17.78° C | 99% | 1018.7 hPa | 0.76 mm | - | - | - |
| 1777467017 | 17.78° C | 99% | 1018.8 hPa | 0.76 mm | - | - | - |
| 1777466430 | 17.22° C | 99% | 1018.9 hPa | 0.51 mm | - | - | - |
| 1777465826 | 17.22° C | 99% | 1018.8 hPa | 0.25 mm | - | - | - |
| 1777465221 | 17.22° C | 99% | 1018.5 hPa | 0 mm | - | - | - |
| 1777464616 | 17.22° C | 99% | 1018.5 hPa | 0 mm | - | - | - |
| 1777464016 | 16.67° C | 99% | 1018.5 hPa | 0 mm | - | - | - |
| 1777463417 | 16.67° C | 99% | 1018.4 hPa | 0 mm | - | - | - |
* Rain latest hour (hover to see other rain measurements)
** Current wind speed in m/s (hover to see current wind gust speed)